Flag for U.S.A. Weather past 2 weeks in Fort Lauderdale, Florida, U.S.A.

Now
87 °F

Scattered clouds.


Feels Like: 90 °F
Forecast: 70 / 83 °F
Wind: 17 mph from Southwest

Location: Fort Lauderdale Executive Airport


UV Index: 5 (Moderate)

Visibility: 10 mi


Pressure: 29.89 "Hg

Humidity: 51%

Dew point: 67 °F

Location of Fort LauderdaleLocation

Historic Weather in Fort Lauderdale

°F

Fort Lauderdale temperature yesterday

Maximum temperature yesterday: 82 °F (at 12:53 PM)
Minimum temperature yesterday: 72 °F (at 1:53 AM)
Average temperature yesterday: 77 °F

Past Weeks' High & Low Weather Summary

 TemperatureHumidityPressure
High91 °F (Apr 8, 2:53 PM)97% (Apr 18, 12:53 AM)30.27 "Hg (Apr 18, 12:53 AM)
Low64 °F (Apr 10, 5:53 AM)36% (Apr 10, 10:53 AM)29.76 "Hg (Apr 8, 4:53 PM)
Average76 °F72%30.03 "Hg
* Reported Apr 4 2:53 PM — Apr 19 2:53 PM, Fort Lauderdale, Weather by CustomWeather, © 2014

Note: Actual official high and low records may vary slightly from our data, if they occured in-between our weather recording intervals... More about our weather records

Advertising

Historic Weather Conditions — Data for Previous 24 hours

 ConditionsComfort  
Time TempWeatherWind HumidityBarometerVisibility
2:53 PM
Apr 19
87 °FScattered clouds.17 mph51%29.89 "Hg10 mi
1:53 PM84 °FScattered clouds.12 mph59%29.91 "Hg10 mi
12:53 PM83 °FSunny.12 mph65%29.93 "Hg10 mi
11:53 AM80 °FScattered clouds.8 mph71%29.96 "Hg10 mi
10:53 AM77 °FSunny.10 mph79%29.96 "Hg10 mi
9:53 AM72 °FScattered clouds.5 mph93%29.97 "Hg10 mi
8:53 AM71 °FBroken clouds.7 mph93%29.96 "Hg10 mi
7:53 AM70 °FLight rain. Cloudy.8 mph93%29.97 "Hg8 mi
6:53 AM74 °FPartly cloudy.5 mph85%29.94 "Hg10 mi
5:53 AM76 °FLight rain. Passing clouds.6 mph91%29.92 "Hg10 mi
4:53 AM76 °FPassing clouds.8 mph88%29.92 "Hg10 mi
3:53 AM77 °FPassing clouds.6 mph85%29.91 "Hg10 mi
2:53 AM77 °FClear.7 mph85%29.93 "Hg10 mi
1:53 AM77 °FPassing clouds.7 mph85%29.96 "Hg10 mi
12:53 AM77 °FPassing clouds.8 mph85%29.96 "Hg10 mi
11:53 PM
Apr 18
77 °FPassing clouds.8 mph85%29.97 "Hg10 mi
10:53 PM77 °FClear.9 mph85%29.98 "Hg10 mi
9:53 PM77 °FClear.7 mph85%29.99 "Hg10 mi
8:53 PM78 °FClear.10 mph79%29.97 "Hg10 mi
7:53 PM78 °FSunny.7 mph76%29.96 "Hg10 mi
6:53 PM79 °FSunny.16 mph77%29.96 "Hg10 mi
5:53 PM80 °FScattered clouds.17 mph74%29.97 "Hg10 mi
4:53 PM77 °FMostly cloudy.7 mph85%29.99 "Hg10 mi
3:53 PM82 °FScattered clouds.15 mph67%30.00 "Hg10 mi
Weather by CustomWeather, © 2014

See weather overview